Location: Oakley
(37.9974°N, 121.7125°W)
Time: 18:22:25
(UTC+00:00)

BREEZE-M DEB (TANK) - Pass Details

Date: 13 February 2026
Orbit: 970 x 35648 km, 47.4° (Epoch: 10 March)

Event Time Altitude Azimuth Distance (km) Brightness Sun altitude
Exits shadow 12:38:52 49° 324° (NW) 1,409 4.0 -28.2°
Maximum altitude 12:39:15 50° 337° (NNW) 1,364 4.0 -28.1°
Drops below altitude 10° 12:44:10 10° 55° (NE) 2,742 6.6 -27.1°
Sets 12:46:39 0° 62° (ENE) 3,915 7.7 -26.6°
